Voltar ao catálogo

HULIANWANG DIGUI-145

AtivoComunicaçõesLEO
NORAD 67443·PAYLOAD·🇨🇳 China

Lançado Jan 13, 2026 de Wenchang Space Launch Site

Loading…

Próximas Passagens (próximas 24 horas)

TLE

AtualizadoSource: Space-Track

Época: Sep 14, 2026, 21:04 UTC

1 67443U 26007J   26257.87836837 -.00000093  00000-0  67677-4 0  9991
2 67443  50.0084 123.8645 0000413   9.3059 350.7821 13.29329462 32727

Acompanhe HULIANWANG DIGUI-145 em tempo real com AllMySat

Download on the App Store